Back to catalog

STARLINK-2717

AliveCommunicationsVLEO
NORAD 48659·PAYLOAD·🇺🇸 United States

Launched May 26, 2021 from Cape Canaveral Space Force Station

Loading…

Next Passes (next 24 hours)

TLE

FreshSource: CelesTrak SupGP

Epoch: Sep 15, 2026, 01:23 UTC

1 48659C 21044X   26258.05812500  .00053295  00000+0  17134-2 0  2586
2 48659  53.1575 312.5798 0001161  98.1181 280.7251 15.31684434    17

Track STARLINK-2717 in real time with AllMySat

Download on the App Store